Alva, OK

2:37 PM CST on December 07, 2016 (GMT -0600)
Alva Regional

Weather History for KAVK - March, 2013

Change the Weather History Date:

Monday, March 11, 2013

  Actual Average Record
Temperature  
Mean Temperature 40 °F -  
Max Temperature 55 °F 62 °F 89 °F (1967)
Min Temperature 24 °F 37 °F -5 °F (1948)
Degree Days  
Heating Degree Days 26    
Moisture  
Dew Point 24 °F    
Average Humidity 57    
Maximum Humidity 81    
Minimum Humidity 33    
Precipitation  
Precipitation 0.00 in - - ()
Sea Level Pressure  
Sea Level Pressure 30.01 in    
Wind  
Wind Speed 10 mph (NW)    
Max Wind Speed 18 mph    
Max Gust Speed 23 mph    
Visibility 10 miles    
Events      
Averages and records for this station are not official NWS values.
T = Trace of Precipitation, MM = Missing Value Source: NWS Daily Summary

Daily Weather History Graph

Daily Weather History Graph

Search for Another Location

Airport or City:

Trip Planner

Search our weather history database for the weather conditions in past years. The results will help you decide how hot, cold, wet, or windy it might be!

Date:

Astronomy

Mar. 11, 2013 Rise Set
Actual Time 7:50 AM CDT 7:38 PM CDT
Civil Twilight 7:25 AM CDT 8:04 PM CDT
Nautical Twilight 6:55 AM CDT 8:34 PM CDT
Astronomical Twilight 6:25 AM CDT 9:04 PM CDT
Moon 7:26 AM CDT (3/11) 7:50 PM CDT (3/11)
Length of Visible Light 12h 39m
Length of Day
11h 47m
Waning Crescent, 0% of the Moon is Illuminated
Mar 11
Waning Crescent
Mar 11
New
Mar 19
First Quarter
Mar 27
Full
Apr 2
Last Quarter

Hourly Weather History & Observations

Time (CDT) Temp. Windchill Dew Point Humidity Pressure Visibility Wind Dir Wind Speed Gust Speed Precip Events Conditions
12:10 AM 32.0 °F 22.5 °F 23.0 °F 69% 30.08 in 10.0 mi NW 12.7 mph - N/A   Clear
12:30 AM 32.0 °F 23.0 °F 23.0 °F 69% 30.08 in 10.0 mi NW 11.5 mph - N/A   Partly Cloudy
12:50 AM 30.2 °F 20.8 °F 23.0 °F 75% 30.07 in 10.0 mi NW 11.5 mph - N/A   Partly Cloudy
1:30 AM 28.4 °F 18.5 °F 21.2 °F 74% 30.06 in 10.0 mi NW 11.5 mph - N/A   Partly Cloudy
1:50 AM 28.4 °F 18.5 °F 21.2 °F 74% 30.05 in 10.0 mi NW 11.5 mph 16.1 mph N/A   Clear
2:10 AM 28.4 °F 18.5 °F 19.4 °F 69% 30.05 in 10.0 mi NW 11.5 mph - N/A   Clear
2:30 AM 28.4 °F 18.5 °F 19.4 °F 69% 30.05 in 10.0 mi NNW 11.5 mph - N/A   Partly Cloudy
2:50 AM 28.4 °F 19.7 °F 19.4 °F 69% 30.05 in 10.0 mi NNW 9.2 mph - N/A   Clear
3:10 AM 26.6 °F 16.8 °F 19.4 °F 74% 30.04 in 10.0 mi NW 10.4 mph - N/A   Clear
3:30 AM 26.6 °F 16.2 °F 19.4 °F 74% 30.05 in 10.0 mi NW 11.5 mph - N/A   Clear
3:50 AM 26.6 °F 15.7 °F 19.4 °F 74% 30.05 in 10.0 mi NW 12.7 mph - N/A   Clear
4:10 AM 26.6 °F 15.7 °F 19.4 °F 74% 30.04 in 10.0 mi NW 12.7 mph - N/A   Clear
4:30 AM 26.6 °F 14.3 °F 19.4 °F 74% 30.04 in 10.0 mi NW 16.1 mph - N/A   Clear
4:50 AM 26.6 °F 14.7 °F 17.6 °F 69% 30.04 in 10.0 mi NW 15.0 mph 18.4 mph N/A   Clear
5:10 AM 26.6 °F 14.3 °F 17.6 °F 69% 30.03 in 10.0 mi NW 16.1 mph 23.0 mph N/A   Clear
5:30 AM 26.6 °F 14.7 °F 17.6 °F 69% 30.03 in 10.0 mi NW 15.0 mph 21.9 mph N/A   Clear
5:50 AM 24.8 °F 11.1 °F 17.6 °F 74% 30.03 in 10.0 mi NW 18.4 mph 23.0 mph N/A   Clear
6:10 AM 24.8 °F 11.5 °F 17.6 °F 74% 30.04 in 10.0 mi NW 17.3 mph - N/A   Clear
6:30 AM 24.8 °F 11.9 °F 15.8 °F 69% 30.03 in 10.0 mi NW 16.1 mph - N/A   Clear
6:50 AM 24.8 °F 13.4 °F 15.8 °F 69% 30.03 in 10.0 mi NW 12.7 mph - N/A   Clear
7:10 AM 24.8 °F 14.0 °F 15.8 °F 69% 30.03 in 10.0 mi NW 11.5 mph - N/A   Clear
7:30 AM 24.8 °F 14.6 °F 15.8 °F 69% 30.03 in 10.0 mi NW 10.4 mph - N/A   Clear
7:50 AM 24.8 °F 16.9 °F 15.8 °F 69% 30.04 in 10.0 mi NW 6.9 mph - N/A   Clear
8:10 AM 24.8 °F 16.1 °F 17.6 °F 74% 30.04 in 10.0 mi WNW 8.1 mph - N/A   Clear
8:30 AM 26.6 °F 19.1 °F 17.6 °F 69% 30.04 in 10.0 mi NW 6.9 mph - N/A   Clear
8:50 AM 28.4 °F 22.2 °F 17.6 °F 64% 30.04 in 10.0 mi NW 5.8 mph - N/A   Clear
9:10 AM 30.2 °F 23.4 °F 17.6 °F 60% 30.05 in 10.0 mi NW 6.9 mph - N/A   Clear
9:30 AM 32.0 °F 24.8 °F 15.8 °F 51% 30.05 in 10.0 mi NW 8.1 mph - N/A   Clear
9:50 AM 32.0 °F 24.2 °F 17.6 °F 55% 30.06 in 10.0 mi NNW 9.2 mph - N/A   Clear
10:10 AM 33.8 °F 27.7 °F 15.8 °F 48% 30.05 in 10.0 mi NNW 6.9 mph - N/A   Clear
10:30 AM 35.6 °F 27.5 °F 17.6 °F 48% 30.05 in 10.0 mi NW 11.5 mph - N/A   Clear
10:50 AM 37.4 °F 29.8 °F 17.6 °F 45% 30.05 in 10.0 mi NNW 11.5 mph - N/A   Clear
11:10 AM 37.4 °F 30.3 °F 17.6 °F 45% 30.05 in 10.0 mi NW 10.4 mph - N/A   Clear
11:30 AM 39.2 °F 32.5 °F 17.6 °F 42% 30.05 in 10.0 mi NW 10.4 mph - N/A   Clear
11:50 AM 39.2 °F 32.5 °F 17.6 °F 42% 30.04 in 10.0 mi NW 10.4 mph - N/A   Clear
12:10 PM 41.0 °F 34.7 °F 19.4 °F 42% 30.03 in 10.0 mi NW 10.4 mph - N/A   Clear
12:30 PM 42.8 °F 39.3 °F 21.2 °F 42% 30.03 in 10.0 mi West 5.8 mph - N/A   Clear
12:50 PM 44.6 °F 40.2 °F 21.2 °F 39% 30.02 in 10.0 mi WNW 8.1 mph - N/A   Clear
1:10 PM 46.4 °F 41.9 °F 21.2 °F 37% 30.01 in 10.0 mi WNW 9.2 mph - N/A   Clear
1:30 PM 46.4 °F 41.9 °F 23.0 °F 40% 30.01 in 10.0 mi West 9.2 mph - N/A   Clear
1:50 PM 48.2 °F - 23.0 °F 37% 30.00 in 10.0 mi WSW 6.9 mph - N/A   Clear
2:10 PM 48.2 °F - 23.0 °F 37% 29.99 in 10.0 mi WNW 6.9 mph - N/A   Clear
2:30 PM 50.0 °F - 24.8 °F 37% 29.98 in 10.0 mi NW 5.8 mph - N/A   Clear
2:50 PM 50.0 °F - 24.8 °F 37% 29.97 in 10.0 mi WNW 6.9 mph - N/A   Clear
3:10 PM 50.0 °F - 26.6 °F 40% 29.97 in 10.0 mi WNW 5.8 mph - N/A   Clear
3:30 PM 51.8 °F - 26.6 °F 38% 29.97 in 10.0 mi West 5.8 mph - N/A   Clear
3:50 PM 53.6 °F - 26.6 °F 35% 29.97 in 10.0 mi West 3.5 mph - N/A   Clear
4:10 PM 53.6 °F - 26.6 °F 35% 29.96 in 10.0 mi SSW 5.8 mph - N/A   Clear
4:30 PM 53.6 °F - 24.8 °F 33% 29.96 in 10.0 mi Calm Calm - N/A   Clear
4:50 PM 55.4 °F - 26.6 °F 33% 29.96 in 10.0 mi NW 3.5 mph - N/A   Partly Cloudy
5:10 PM 55.4 °F - 26.6 °F 33% 29.95 in 10.0 mi SW 3.5 mph - N/A   Clear
5:30 PM 55.4 °F - 26.6 °F 33% 29.95 in 10.0 mi Calm Calm - N/A   Clear
5:50 PM 55.4 °F - 26.6 °F 33% 29.95 in 10.0 mi South 4.6 mph - N/A   Clear
6:10 PM 55.4 °F - 28.4 °F 36% 29.95 in 10.0 mi South 3.5 mph - N/A   Clear
6:30 PM 55.4 °F - 28.4 °F 36% 29.94 in 10.0 mi ESE 5.8 mph - N/A   Clear
6:50 PM 53.6 °F - 32.0 °F 44% 29.95 in 10.0 mi SE 5.8 mph - N/A   Clear
7:10 PM 51.8 °F - 32.0 °F 47% 29.95 in 10.0 mi SE 8.1 mph - N/A   Clear
7:30 PM 48.2 °F - 35.6 °F 62% 29.95 in 10.0 mi SE 6.9 mph - N/A   Partly Cloudy
7:50 PM 48.2 °F - 37.4 °F 66% 29.95 in 10.0 mi SE 8.1 mph - N/A   Scattered Clouds
8:10 PM 48.2 °F - 35.6 °F 62% 29.96 in 10.0 mi ESE 8.1 mph - N/A   Partly Cloudy
8:30 PM 46.4 °F 41.9 °F 35.6 °F 66% 29.96 in 10.0 mi ESE 9.2 mph - N/A   Scattered Clouds
8:50 PM 44.6 °F 40.2 °F 35.6 °F 71% 29.97 in 10.0 mi ESE 8.1 mph - N/A   Mostly Cloudy
9:10 PM 46.4 °F 41.5 °F 33.8 °F 62% 29.96 in 10.0 mi SE 10.4 mph - N/A   Mostly Cloudy
9:30 PM 46.4 °F 41.5 °F 33.8 °F 62% 29.97 in 10.0 mi SE 10.4 mph - N/A   Mostly Cloudy
9:50 PM 44.6 °F 39.7 °F 35.6 °F 71% 29.97 in 10.0 mi SSE 9.2 mph - N/A   Mostly Cloudy
10:10 PM 41.0 °F 35.2 °F 35.6 °F 81% 29.98 in 10.0 mi SSE 9.2 mph - N/A   Scattered Clouds
10:30 PM 41.0 °F 35.8 °F 33.8 °F 76% 29.98 in 10.0 mi SSE 8.1 mph - N/A   Scattered Clouds
10:50 PM 42.8 °F 39.3 °F 32.0 °F 66% 29.99 in 10.0 mi SE 5.8 mph - N/A   Overcast
11:30 PM 42.8 °F 40.1 °F 32.0 °F 66% 30.02 in 10.0 mi ENE 4.6 mph - N/A   Overcast
11:50 PM 42.8 °F 41.1 °F 32.0 °F 66% 30.03 in 10.0 mi ENE 3.5 mph - N/A   Overcast